GW7343 Weather Reports


time (UTC)temp
F
wind
direction
speed
knots
gust
knots
rain 1hr
in
rain 24hr
in
rain mn
in
humidity
%
barometer
mb
20260508220010 62 144 3.5 7.8 0.00 0.00 0.00 49 1006.7
20260508215505 62 115 3.5 8.7 0.00 0.00 0.00 50 1006.7
20260508215007 62 138 2.6 8.7 0.00 0.00 0.00 50 1006.7
20260508214520 62 109 2.6 7.8 0.00 0.00 0.00 51 1006.8
20260508214011 62 132 6.1 8.7 0.00 0.00 0.00 50 1006.8
20260508213510 62 143 5.2 8.7 0.00 0.00 0.00 52 1006.8
20260508213027 61 140 2.6 12.2 0.00 0.00 0.00 51 1006.9
20260508212505 61 137 7.8 12.2 0.00 0.00 0.00 51 1006.9
20260508212004 61 100 3.5 10.4 0.00 0.00 0.00 52 1006.9
20260508211516 61 106 4.3 10.4 0.00 0.00 0.00 51 1006.9
20260508211008 61 153 6.1 10.4 0.00 0.00 0.00 51 1006.9
20260508210515 61 161 4.3 10.4 0.00 0.00 0.00 51 1007.0
20260508210028 60 141 5.2 12.2 0.00 0.00 0.00 55 1007.0
20260508205513 60 160 4.3 13.0 0.00 0.00 0.00 52 1007.1
20260508205013 60 130 7.8 13.9 0.00 0.00 0.00 52 1007.2
20260508204515 60 146 6.1 13.9 0.00 0.00 0.00 53 1007.3
20260508204006 60 140 7.8 13.9 0.00 0.00 0.00 53 1007.3
20260508203508 59 145 7.0 10.4 0.00 0.00 0.00 51 1007.5
20260508203016 59 146 6.1 12.2 0.00 0.00 0.00 52 1007.6
20260508202507 59 116 5.2 12.2 0.00 0.00 0.00 50 1007.6
20260508202012 59 115 5.2 12.2 0.00 0.00 0.00 50 1007.6
20260508201530 59 137 7.0 12.2 0.00 0.00 0.00 49 1007.7
20260508201014 59 173 6.1 13.0 0.00 0.00 0.00 48 1007.9
20260508200504 60 142 7.8 13.0 0.00 0.00 0.00 46 1007.9
20260508200015 60 153 8.7 13.0 0.00 0.00 0.00 46 1007.9
20260508195506 60 156 7.8 13.0 0.00 0.00 0.00 43 1008.1
20260508195011 60 182 5.2 13.0 0.00 0.00 0.00 43 1008.1
20260508194521 61 123 5.2 13.9 0.00 0.00 0.00 42 1008.2
20260508194008 61 163 8.7 13.9 0.00 0.00 0.00 41 1008.2
20260508193513 62 136 8.7 13.9 0.00 0.00 0.00 41 1008.3
20260508193055 62 131 5.2 9.6 0.00 0.00 0.00 42 1008.3
20260508192508 62 144 3.5 8.7 0.00 0.00 0.00 40 1008.3
20260508192008 62 163 2.6 7.8 0.00 0.00 0.00 42 1008.5
20260508191521 62 132 4.3 7.0 0.00 0.00 0.00 41 1008.4
20260508191008 61 53 0.9 10.4 0.00 0.00 0.00 40 1008.6
20260508190513 61 134 1.7 10.4 0.00 0.00 0.00 42 1008.7
20260508190034 61 126 6.1 10.4 0.00 0.00 0.00 40 1008.7
20260508185513 62 94 4.3 8.7 0.00 0.00 0.00 43 1008.7
20260508185012 61 100 0.9 10.4 0.00 0.00 0.00 42 1008.8
20260508184512 61 170 2.6 10.4 0.00 0.00 0.00 41 1008.8
20260508184006 61 115 4.3 8.7 0.00 0.00 0.00 41 1008.8
20260508183506 61 117 5.2 10.4 0.00 0.00 0.00 41 1008.9
20260508183021 61 180 4.3 12.2 0.00 0.00 0.00 40 1009.0
20260508182509 62 153 5.2 12.2 0.00 0.00 0.00 39 1009.0
20260508182015 63 130 6.1 10.4 0.00 0.00 0.00 34 1009.0
20260508181507 63 202 2.6 7.8 0.00 0.00 0.00 35 1009.1
20260508181006 62 243 3.5 7.8 0.00 0.00 0.00 34 1009.2
20260508180507 62 166 2.6 7.8 0.00 0.00 0.00 34 1009.2
20260508180019 62 286 1.7 7.0 0.00 0.00 0.00 31 1009.3
20260508175508 62 247 3.5 7.0 0.00 0.00 0.00 33 1009.4
20260508175013 61 273 3.5 5.2 0.00 0.00 0.00 38 1009.5
20260508174534 60 26 0.0 8.7 0.00 0.00 0.00 34 1009.6
20260508174011 60 360 2.6 8.7 0.00 0.00 0.00 37 1009.7
20260508173502 61 230 1.7 9.6 0.00 0.00 0.00 33 1009.8
20260508173009 61 205 6.1 9.6 0.00 0.00 0.00 35 1010.0
20260508172510 62 169 4.3 8.7 0.00 0.00 0.00 34 1010.0
20260508172009 61 258 4.3 8.7 0.00 0.00 0.00 35 1010.1
20260508171519 61 327 3.5 7.0 0.00 0.00 0.00 34 1010.2
20260508171014 61 221 1.7 13.0 0.00 0.00 0.00 37 1010.2
20260508170508 61 252 3.5 13.0 0.00 0.00 0.00 34 1010.3
20260508170025 61 274 7.0 13.0 0.00 0.00 0.00 35 1010.4
20260508165503 60 221 5.2 11.3 0.00 0.00 0.00 36 1010.4
20260508165004 60 274 0.9 7.0 0.00 0.00 0.00 40 1010.5
20260508164514 60 196 1.7 11.3 0.00 0.00 0.00 37 1010.6
20260508164007 59 240 6.1 12.2 0.00 0.00 0.00 39 1010.8
20260508163508 59 215 4.3 12.2 0.00 0.00 0.00 37 1010.9
20260508163029 58 267 3.5 7.8 0.00 0.00 0.00 40 1010.8
20260508162509 58 176 3.5 7.8 0.00 0.00 0.00 42 1010.8
20260508162014 57 242 4.3 7.8 0.00 0.00 0.00 42 1010.7
20260508161508 57 91 0.9 6.1 0.00 0.00 0.00 40 1010.8
20260508161006 57 200 3.5 7.8 0.00 0.00 0.00 41 1010.9
20260508160510 57 290 1.7 7.8 0.00 0.00 0.00 40 1010.9
20260508160015 57 186 2.6 7.8 0.00 0.00 0.00 42 1010.9
20260508155510 57 329 3.5 7.8 0.00 0.00 0.00 43 1010.9
20260508155013 56 48 1.7 8.7 0.00 0.00 0.00 42 1011.0
20260508154523 56 271 3.5 8.7 0.00 0.00 0.00 42 1011.1
20260508154013 56 198 3.5 7.0 0.00 0.00 0.00 46 1011.0
20260508153504 55 254 0.9 7.0 0.00 0.00 0.00 44 1011.0
20260508153012 55 297 2.6 4.3 0.00 0.00 0.00 46 1011.1
20260508152508 55 150 1.7 6.1 0.00 0.00 0.00 44 1011.1
20260508152016 54 151 1.7 6.1 0.00 0.00 0.00 44 1011.1
20260508151535 54 178 1.7 4.3 0.00 0.00 0.00 49 1011.2
20260508151012 54 116 0.0 3.5 0.00 0.00 0.00 50 1011.3
20260508150517 54 157 1.7 4.3 0.00 0.00 0.00 48 1011.4
20260508150030 53 177 2.6 4.3 0.00 0.00 0.00 47 1011.3
20260508145506 53 173 1.7 3.5 0.00 0.00 0.00 50 1011.4
20260508145003 53 277 2.6 3.5 0.00 0.00 0.00 52 1011.4
20260508144515 53 282 0.9 3.5 0.00 0.00 0.00 50 1011.5
20260508144007 53 217 0.9 2.6 0.00 0.00 0.00 52 1011.5
20260508143511 53 287 0.9 2.6 0.00 0.00 0.00 52 1011.5
20260508143026 53 32 0.9 4.3 0.00 0.00 0.00 52 1011.6
20260508142512 52 202 1.7 5.2 0.00 0.00 0.00 55 1011.6
20260508142014 52 196 2.6 5.2 0.00 0.00 0.00 53 1011.6
20260508141512 52 227 2.6 5.2 0.00 0.00 0.00 57 1011.7
20260508141006 52 161 1.7 7.0 0.00 0.00 0.00 57 1011.8
20260508140510 52 182 2.6 6.1 0.00 0.00 0.00 55 1011.8
20260508140019 52 319 0.9 3.5 0.00 0.00 0.00 56 1011.8
20260508135514 52 331 1.7 3.5 0.00 0.00 0.00 55 1011.8
20260508135013 52 258 1.7 4.3 0.00 0.00 0.00 56 1011.7
20260508134527 51 204 1.7 4.3 0.00 0.00 0.00 59 1011.7
20260508134010 51 253 1.7 3.5 0.00 0.00 0.00 58 1011.7
20260508133504 51 211 2.6 3.5 0.00 0.00 0.00 61 1011.8
20260508133012 51 277 1.7 3.5 0.00 0.00 0.00 61 1011.8
20260508132506 50 211 1.7 3.5 0.00 0.00 0.00 61 1011.7
20260508132015 50 198 1.7 4.3 0.00 0.00 0.00 63 1011.8
20260508131525 50 175 1.7 4.3 0.00 0.00 0.00 62 1011.8
20260508131007 50 177 0.9 4.3 0.00 0.00 0.00 60 1011.8
20260508130510 49 233 1.7 4.3 0.00 0.00 0.00 61 1011.8
20260508130029 49 209 1.7 4.3 0.00 0.00 0.00 62 1011.7
20260508125504 49 150 1.7 4.3 0.00 0.00 0.00 62 1011.7
20260508125010 49 172 1.7 4.3 0.00 0.00 0.00 63 1011.7
20260508124523 48 146 0.9 3.5 0.00 0.00 0.00 65 1011.7
20260508124010 48 192 1.7 4.3 0.00 0.00 0.00 64 1011.7
20260508123512 48 186 0.9 4.3 0.00 0.00 0.00 65 1011.7
20260508123024 47 219 0.9 2.6 0.00 0.00 0.00 68 1011.7
20260508122509 46 206 1.7 3.5 0.00 0.00 0.00 70 1011.7
20260508122014 46 146 0.9 3.5 0.00 0.00 0.00 70 1011.6
20260508121518 45 184 0.9 1.7 0.00 0.00 0.00 74 1011.5
20260508121005 44 186 0.9 1.7 0.00 0.00 0.00 76 1011.4
20260508120507 43 188 0.9 1.7 0.00 0.00 0.00 79 1011.4
20260508120022 42 179 0.9 1.7 0.00 0.00 0.00 80 1011.3
20260508115509 41 133 0.9 1.7 0.00 0.00 0.00 82 1011.3
20260508115010 40 28 0.0 1.7 0.00 0.00 0.00 85 1011.2
20260508114528 40 28 0.0 1.7 0.00 0.00 0.00 87 1011.2
20260508114011 39 28 0.0 1.7 0.00 0.00 0.00 88 1011.2
20260508113515 38 28 0.0 1.7 0.00 0.00 0.00 88 1011.2
20260508113014 38 28 0.0 0.0 0.00 0.00 0.00 87 1011.2
20260508112509 37 28 0.0 1.7 0.00 0.00 0.00 87 1011.2
20260508112011 37 28 0.0 1.7 0.00 0.00 0.00 87 1011.3
20260508111526 37 28 0.0 1.7 0.00 0.00 0.00 86 1011.2
20260508111010 37 27 0.0 1.7 0.00 0.00 0.00 86 1011.1
20260508110512 37 28 0.0 1.7 0.00 0.00 0.00 86 1011.1
20260508110032 37 28 0.0 1.7 0.00 0.00 0.00 86 1011.0
20260508105506 37 28 0.0 1.7 0.00 0.00 0.00 86 1011.1
20260508105012 37 28 0.0 0.0 0.00 0.00 0.00 86 1011.0
20260508104521 36 28 0.0 1.7 0.00 0.00 0.00 85 1011.0
20260508104008 37 28 0.0 1.7 0.00 0.00 0.00 84 1011.1
20260508103511 37 28 0.0 1.7 0.00 0.00 0.00 84 1011.1
20260508103028 37 28 0.0 1.7 0.00 0.00 0.00 84 1011.0
20260508102508 37 28 0.0 0.9 0.00 0.00 0.00 83 1010.9
20260508102015 37 28 0.0 0.0 0.00 0.00 0.00 82 1011.0
20260508101528 37 28 0.0 0.0 0.00 0.00 0.00 82 1011.0
20260508101006 38 28 0.0 0.0 0.00 0.00 0.00 82 1011.1
20260508100507 38 28 0.0 1.7 0.00 0.00 0.00 81 1011.1
20260508100024 38 28 0.0 1.7 0.00 0.00 0.00 82 1011.1
20260508095507 38 28 0.0 1.7 0.00 0.00 0.00 82 1011.0
20260508095013 38 28 0.0 0.0 0.00 0.00 0.00 80 1011.1
20260508094530 39 28 0.0 0.0 0.00 0.00 0.00 79 1011.1
20260508094009 39 28 0.0 0.0 0.00 0.00 0.00 77 1011.1
20260508093516 39 28 0.0 1.7 0.00 0.00 0.00 77 1011.2
20260508093015 40 28 0.0 1.7 0.00 0.00 0.00 77 1011.3
20260508092509 40 28 0.0 1.7 0.00 0.00 0.00 77 1011.3
20260508092008 40 28 0.0 1.7 0.00 0.00 0.00 77 1011.3
20260508091509 41 28 0.9 1.7 0.00 0.00 0.00 76 1011.3
20260508091005 41 28 0.0 1.7 0.00 0.00 0.00 75 1011.3
20260508090504 42 28 0.0 1.7 0.00 0.00 0.00 73 1011.3
20260508090015 42 28 0.0 1.7 0.00 0.00 0.00 73 1011.3
20260508085506 42 28 0.0 1.7 0.00 0.00 0.00 73 1011.2
20260508085012 42 28 0.0 1.7 0.00 0.00 0.00 73 1011.3
20260508084522 43 28 0.0 1.7 0.00 0.00 0.00 73 1011.3
20260508084004 43 28 0.0 2.6 0.00 0.00 0.00 72 1011.2
20260508083504 43 28 1.7 2.6 0.00 0.00 0.00 72 1011.3
20260508083007 43 352 1.7 2.6 0.00 0.00 0.00 73 1011.4
20260508082504 43 24 1.7 2.6 0.00 0.00 0.00 72 1011.4
20260508082007 43 335 0.9 1.7 0.00 0.00 0.00 73 1011.3
20260508081516 42 61 0.0 1.7 0.00 0.00 0.00 73 1011.2
20260508081005 42 61 0.0 1.7 0.00 0.00 0.00 72 1011.1
20260508080511 42 50 0.0 0.9 0.00 0.00 0.00 72 1011.1
20260508080022 42 48 0.9 0.9 0.00 0.00 0.00 72 1011.2
20260508075505 43 36 0.0 1.7 0.00 0.00 0.00 70 1011.2
20260508075005 43 36 0.0 1.7 0.00 0.00 0.00 70 1011.2
20260508074506 43 36 0.0 1.7 0.00 0.00 0.00 70 1011.1
20260508074006 43 36 0.0 1.7 0.00 0.00 0.00 69 1011.1
20260508073506 44 36 0.0 1.7 0.00 0.00 0.00 69 1011.1
20260508073021 44 36 0.9 1.7 0.00 0.00 0.00 69 1011.1
20260508072507 44 35 0.0 2.6 0.00 0.00 0.00 69 1011.2
20260508072012 44 35 1.7 2.6 0.00 0.00 0.00 69 1011.3
20260508071504 44 17 0.9 3.5 0.00 0.00 0.00 69 1011.4
20260508071005 44 352 1.7 3.5 0.00 0.00 0.00 69 1011.5
20260508070507 44 34 1.7 3.5 0.00 0.00 0.00 68 1011.3
20260508070014 44 54 0.9 1.7 0.00 0.00 0.00 68 1011.2
20260508065508 44 42 0.0 2.6 0.00 0.00 0.00 68 1011.2
20260508065006 44 38 0.9 4.3 0.00 0.00 0.00 67 1011.3
20260508064531 45 28 1.7 4.3 0.00 0.00 0.00 67 1011.4
20260508064008 45 10 2.6 5.2 0.00 0.00 0.00 66 1011.5
20260508063503 45 38 2.6 7.0 0.00 0.00 0.00 66 1011.4
20260508063008 45 53 3.5 7.8 0.00 0.00 0.00 66 1011.3
20260508062509 45 21 4.3 7.8 0.00 0.00 0.00 66 1011.7
20260508062006 45 11 2.6 3.5 0.00 0.00 0.00 66 1011.5
20260508061518 45 64 0.9 1.7 0.00 0.00 0.00 65 1011.2
20260508061009 46 76 0.0 2.6 0.00 0.00 0.00 65 1011.1
20260508060510 46 70 0.0 9.6 0.00 0.00 0.00 65 1011.3
20260508060028 46 49 3.5 9.6 0.00 0.00 0.00 64 1011.5
20260508055502 46 335 5.2 8.7 0.00 0.00 0.00 72 1011.7
20260508055002 46 341 1.7 2.6 0.00 0.00 0.00 72 1011.7
20260508054512 46 264 0.0 1.7 0.00 0.00 0.00 72 1011.5
20260508054006 46 264 0.0 1.7 0.00 0.00 0.00 71 1011.4
20260508053508 47 256 0.0 1.7 0.00 0.00 0.00 71 1011.5
20260508053025 47 256 0.9 2.6 0.00 0.00 0.00 70 1011.5
20260508052510 47 254 0.0 4.3 0.00 0.00 0.00 69 1011.5
20260508052020 47 219 0.9 5.2 0.00 0.00 0.00 69 1011.5
20260508051504 47 263 1.7 6.1 0.00 0.00 0.00 68 1011.7
20260508051003 47 250 2.6 7.0 0.00 0.00 0.00 68 1011.8
20260508050507 48 242 3.5 7.8 0.00 0.00 0.00 67 1011.9
20260508050015 48 211 4.3 7.8 0.00 0.00 0.00 66 1011.9
20260508045506 48 246 2.6 7.8 0.00 0.00 0.00 65 1011.7
20260508045007 48 251 4.3 10.4 0.00 0.00 0.00 64 1011.6
20260508044526 49 255 6.1 10.4 0.00 0.00 0.00 62 1011.7
20260508044010 48 255 4.3 8.7 0.00 0.00 0.00 60 1011.6
20260508043502 49 275 1.7 8.7 0.00 0.00 0.00 58 1011.6
20260508043007 48 229 5.2 8.7 0.00 0.00 0.00 56 1011.5
20260508042503 48 151 1.7 3.5 0.00 0.00 0.00 55 1011.2
20260508042008 48 22 0.0 0.9 0.00 0.00 0.00 54 1011.5
20260508041520 48 22 0.0 2.6 0.00 0.00 0.00 53 1011.4
20260508041009 48 22 0.9 2.6 0.00 0.00 0.00 54 1011.4
20260508040512 48 9 0.9 1.7 0.00 0.00 0.00 55 1011.4
20260508040028 48 41 0.9 1.7 0.00 0.00 0.00 54 1011.3
20260508035503 49 148 0.0 0.9 0.00 0.00 0.00 54 1011.2
20260508035004 49 148 0.9 1.7 0.00 0.00 0.00 51 1011.2
20260508034521 49 148 0.9 1.7 0.00 0.00 0.00 51 1011.3
20260508034006 49 150 1.7 1.7 0.00 0.00 0.00 51 1011.3
20260508033506 49 336 0.0 1.7 0.00 0.00 0.00 51 1011.4
20260508033030 50 336 0.0 1.7 0.00 0.00 0.00 51 1011.2
20260508032509 50 336 0.0 1.7 0.00 0.00 0.00 50 1011.4
20260508032014 50 336 0.0 1.7 0.00 0.00 0.00 48 1011.5
20260508031508 50 346 0.0 2.6 0.00 0.00 0.00 48 1011.5
20260508031003 50 346 0.0 3.5 0.00 0.00 0.00 47 1011.4
20260508030506 50 306 1.7 4.3 0.00 0.00 0.00 47 1011.4
20260508030018 50 300 1.7 4.3 0.00 0.00 0.00 46 1011.5
20260508025508 51 304 1.7 4.3 0.00 0.00 0.00 46 1011.5
20260508025013 51 350 1.7 3.5 0.00 0.00 0.00 45 1011.5
20260508024526 51 5 1.7 2.6 0.00 0.00 0.00 45 1011.4
20260508024008 51 344 1.7 5.2 0.00 0.00 0.00 44 1011.4
20260508023504 51 325 1.7 5.2 0.00 0.00 0.00 44 1011.4
20260508023009 51 350 2.6 4.3 0.00 0.00 0.00 44 1011.4
20260508022510 51 323 0.9 3.5 0.00 0.00 0.00 44 1011.4
20260508022008 52 260 1.7 3.5 0.00 0.00 0.00 44 1011.4
20260508021527 52 277 0.9 5.2 0.00 0.00 0.00 44 1011.4
20260508021014 52 288 0.0 6.1 0.00 0.00 0.00 45 1011.4
20260508020511 52 267 1.7 5.2 0.00 0.00 0.00 44 1011.5
20260508020028 52 269 2.6 7.0 0.00 0.00 0.00 43 1011.4
20260508015507 52 274 3.5 8.7 0.00 0.00 0.00 42 1011.3
20260508015006 52 271 3.5 8.7 0.00 0.00 0.00 43 1011.3
20260508014516 52 258 2.6 8.7 0.00 0.00 0.00 43 1011.2
20260508014007 52 297 5.2 8.7 0.00 0.00 0.00 42 1011.1
20260508013506 52 262 3.5 13.0 0.00 0.00 0.00 43 1011.2
20260508013032 52 272 3.5 14.8 0.00 0.00 0.00 43 1011.2
20260508012508 52 261 4.3 14.8 0.00 0.00 0.00 43 1011.1
20260508012009 52 259 7.8 14.8 0.00 0.00 0.00 42 1011.1
20260508011531 52 251 2.6 6.1 0.00 0.00 0.00 42 1010.8
20260508011003 52 265 2.6 5.2 0.00 0.00 0.00 42 1010.8
20260508010506 52 244 1.7 5.2 0.00 0.00 0.00 42 1010.7
20260508010032 52 299 1.7 3.5 0.00 0.00 0.00 42 1010.7
20260508005508 52 329 1.7 5.2 0.00 0.00 0.00 42 1010.6
20260508005011 53 268 0.9 6.1 0.00 0.00 0.00 41 1010.6
20260508004527 52 267 2.6 6.1 0.00 0.00 0.00 41 1010.6
20260508004016 53 248 2.6 6.1 0.00 0.00 0.00 40 1010.4
20260508003514 53 263 0.9 6.1 0.00 0.00 0.00 41 1010.4
20260508003012 53 273 1.7 5.2 0.00 0.00 0.00 40 1010.4
20260508002509 53 280 2.6 5.2 0.00 0.00 0.00 40 1010.4
20260508002007 53 277 1.7 6.1 0.00 0.00 0.00 40 1010.5
20260508001519 53 269 2.6 7.0 0.00 0.00 0.00 39 1010.4
20260508001009 53 271 3.5 8.7 0.00 0.00 0.00 39 1010.4
20260508000510 53 344 3.5 9.6 0.00 0.00 0.00 38 1010.4
20260508000031 53 271 2.6 9.6 0.00 0.00 0.00 39 1010.4
20260507235514 54 270 2.6 10.4 0.00 0.00 0.00 38 1010.4
20260507235003 54 283 4.3 14.8 0.00 0.00 0.00 38 1010.4
20260507234515 54 284 6.1 14.8 0.00 0.00 0.00 38 1010.3
20260507234008 55 309 2.6 10.4 0.00 0.00 0.00 39 1010.3
20260507233507 55 275 2.6 10.4 0.00 0.00 0.00 38 1010.3
20260507233024 55 269 6.1 10.4 0.00 0.00 0.00 37 1010.3
20260507232508 55 267 2.6 10.4 0.00 0.00 0.00 38 1010.3
20260507232018 55 285 4.3 11.3 0.00 0.00 0.00 38 1010.3
20260507231531 55 292 4.3 11.3 0.00 0.00 0.00 38 1010.3
20260507231007 55 257 5.2 12.2 0.00 0.00 0.00 38 1010.3
20260507230507 55 278 7.0 14.8 0.00 0.00 0.00 37 1010.4
20260507230032 55 235 6.1 14.8 0.00 0.00 0.00 37 1010.4
20260507225508 56 252 6.1 12.2 0.00 0.00 0.00 37 1010.4
20260507225007 56 300 4.3 11.3 0.00 0.00 0.00 37 1010.5
20260507224508 56 271 6.1 9.6 0.00 0.00 0.00 37 1010.6
20260507224003 55 257 4.3 11.3 0.00 0.00 0.00 38 1010.7
20260507223504 55 252 6.1 11.3 0.00 0.00 0.00 36 1010.6
20260507223019 56 300 4.3 10.4 0.00 0.00 0.00 37 1010.6
20260507222509 55 277 3.5 10.4 0.00 0.00 0.00 38 1010.6
20260507222006 55 229 5.2 13.0 0.00 0.00 0.00 37 1010.7
20260507221522 55 290 3.5 13.0 0.00 0.00 0.00 36 1010.6
20260507221008 56 267 7.0 12.2 0.00 0.00 0.00 36 1010.7
20260507220503 56 294 6.1 12.2 0.00 0.00 0.00 35 1010.7